Location: Auckland
(36.8670°S, 174.7670°E)
Time: 09:06:08
(UTC+13:00)

Cosmos 1862 - Pass Details

Date: 24 January 2019
Orbit: 540 x 556 km, 82.5° (Epoch: 20 February)

Event Time Altitude Azimuth Distance (km) Brightness Sun altitude
Rises 22:23:35 0° 190° (S) 2,751 7.8 -18.3°
Reaches altitude 10° 22:25:47 10° 192° (SSW) 1,846 6.8 -18.6°
Maximum altitude 22:29:50 71° 275° (W) 585 3.5 -19.2°
Enters shadow 22:31:24 35° 350° (N) 896 4.1 -19.4°
